SCOUT A R/B, 1953

Orbit data source: Space-Track

SCOUT A R/B, 1953 is space debris in LEO originally from a launch on Fri, 28 Jan 1966 UTC launched from the Air Force Western Test Range (AFWTR). Debris objects in space refer to the collection of defunct objects orbiting the Earth. Examples of debris include non-operational satellites, rocket bodies, and fragments generated from explosions, collisions, or faulty payload assembly.

Loading next visibility...
Identifier
1953, 1966-005B
Orbit
LEO
Country
Flag of USUS
Related business
Manufacturer
ABL
Mission
Spacecraft
Bus & Motor
ALTAIR, Unknown motor
Mass
33 kg wet, 33 kg dry
Launch date (UTC)
1966-01-28 (60 years ago)
Launch vehicle
Unknown
Launch site
Air Force Western Test Range (AFWTR)
Object type
Payload
Rocket body
Debris
Shape & HBR
Unknown
Radar Cross Section
Medium (>0.1 m² and <1 m²)

Expand to show TLE details & history
Last TLE update: 13 hours ago

TLE from 13 hours ago
0 SCOUT A R/B
1  1953U 66005B   26095.21734204  .00000191  00000-0  18639-3 0  9991
2  1953  90.1515 351.5330 0228681  41.1026 320.7110 13.65064111992925
Epoch: 2026-04-05T05:12Z
TLE epoch observation values (Epoch: 2026-04-05T05:12:58.352Z)
Latitude
-0.00007°
Longitude
79.76393°
Altitude
890.994 km
Speed
7.471 km/s
True Right ascension
23h 26m 07s
True Declination
0° 00' 00"
Sunlit
Object was in daylight at epoch
Visualization orbit readout
Latitude
Unknown
Longitude
Unknown
Altitude
Unknown
Speed
Unknown
Apparent Right ascension
Unknown
Apparent Declination
Unknown
Sunlit
N/A
Visualization observer readout
Local Sidereal Time
00:28:03
Azimuth
Unknown
Elevation
Unknown
Doppler factor
Unknown
Orbital elements
Apogee altitude
1,183.423 km
Perigee altitude
845.318 km
Semi-major axis
7,392.507 km
Eccentricity
0.02287
Inclination
90.1515°
RAAN
351.533°
Arg. of periapsis
41.1026°
True anomaly
319.01436°
Mean anomaly
320.711°
Eccentric anomaly
319.86645°
Mean motion
3.41472 °/min
Orbital period
105.43 mins
BSTAR
0.00018639
Loading maneuver chart data...
Computing Atmospheric mass density...
Loading historical data...
Loading historical data...
Loading historical data...
Loading historical data...
Loading historical data...
Loading historical data...
Loading historical data...

Documentation

Showing up to 5 results
|